Regional Weather Roundup
Issued by NWS

Home | Current Version | Previous Version | Text Only | Print | Product List | Glossary On
Versions: 1 2 3 4 5 6 7 8 9 10 11 12 13 14 15 16 17 18 19 20 21 22 23 24 25 26 27 28
000
ASUS45 KTFX 220710
RWRMT
MONTANA REGIONAL WEATHER ROUNDUP
NATIONAL WEATHER SERVICE GREAT FALLS MT
1200 AM MST SUN JAN 22 2017

NOTE: "FAIR" INDICATES FEW OR NO CLOUDS BELOW 12000 FEET WITH NO
SIGNIFICANT WEATHER AND/OR OBSTRUCTIONS TO VISIBILITY.

MTZ001>007-043-220800-
WEST OF THE DIVIDE

CITY           SKY/WX    TMP DP  RH WIND       PRES   REMARKS
KALISPELL      CLOUDY    24  22  91 CALM      29.76R
MISSOULA       CLOUDY    24  23  96 CALM      29.79R FOG
BUTTE          CLOUDY    13   9  84 SE6       29.74R WCI   4
MULLAN PASS    CLOUDY    26  22  84 CALM      29.65R
ANACONDA         N/A     25  18  74 CALM      29.73S
DEER LODGE       N/A     21  18  86 CALM      29.77R
EUREKA           N/A     25  23  93 CALM      29.79R
HAMILTON         N/A     21  18  86 CALM      29.76R
PLAINS           N/A     24  20  85 CALM      29.79R
RONAN            N/A     25  23  91 CALM      29.82R
$$

MTZ008-052>055-220800-
SOUTHWEST MONTANA

CITY           SKY/WX    TMP DP  RH WIND       PRES   REMARKS
BOZEMAN        CLOUDY    18  13  80 CALM      29.76R
DILLON         CLEAR    N/A N/A N/A S14       29.75R
W YELLOWSTONE  CLOUDY    23  19  86 S9        29.77S WCI  13
ENNIS          CLOUDY    28  21  74 S10       29.80R WCI  19
TWIN BRIDGES     N/A     18   9  68 CALM      29.77R
$$

MTZ009-010-012-014-046-048-049-054-220800-
EAST SLOPES AND CENTRAL MONTANA

CITY           SKY/WX    TMP DP  RH WIND       PRES   REMARKS
CUT BANK       PTCLDY    21  16  81 NW8       29.71R WCI  11
GREAT FALLS    CLOUDY    27  21  78 SW6       29.71R WCI  20
MALMSTROM AFB  CLOUDY    27  23  83 W7        29.72R WCI  20
HELENA         CLOUDY    15  10  80 CALM      29.77R
AUGUSTA          N/A     21  15  79 N5        29.69R
BOWMANS CRNR   MOCLDY    24  19  79 S12       29.69R WCI  13
CHOTEAU          N/A     27  23  86 NW5       29.72S
CONRAD           N/A     14  11  88 W3        29.76R
POWER          CLOUDY    22  18  87 NW7       29.70R WCI  13
RAYNESFORD     CLOUDY    23  19  85 CALM      29.71R
ULM            CLOUDY    26  21  84 MISG      29.72R
$$

MTZ011-013-016-021-045-047-050-051-220800-
NORTH CENTRAL MONTANA

CITY           SKY/WX    TMP DP  RH WIND       PRES   REMARKS
HAVRE          PTCLDY    19  17  92 SW6       29.73R WCI  11
LEWISTOWN      CLEAR     19  14  81 CALM      29.70R
CHINOOK          N/A     28  28 100 W14       29.73R WCI  17
DENTON           N/A     22  19  89 W10       29.67R WCI  11
FORT BENTON      N/A     25  19  80 MISG      29.74R
GEYSER         MOCLDY    28  21  77 SW10      29.69R WCI  18
GRASS RANGE      N/A     28  20  72 W14       29.66R WCI  17
JUDITH GAP       N/A     21  15  78 W3        29.69R
ROY              N/A     27  21  79 MISG      29.67R
STANFORD       MOCLDY    27  20  76 W7        29.68R WCI  20
WINIFRED         N/A     24  20  85 W9        29.69R WCI  15
$$

MTZ017>020-022>027-061-062-220800-
NORTHEAST MONTANA

CITY           SKY/WX    TMP DP  RH WIND       PRES   REMARKS
GLASGOW        CLOUDY    23  21  92 W9        29.68R FOG     WCI  13
JORDAN           N/A     22  19  89 NW6       29.67R WCI  14
SIDNEY         CLOUDY    26  24  92 SW9       29.66R WCI  17
WOLF POINT     CLOUDY    17  13  84 W9        29.68R WCI   6
PLENTYWOOD       N/A     28  28 100 W9        29.62R WCI  20
POPLAR           N/A     19  18  93 W8        29.67R WCI   9
$$

MTZ028>42-056>058-220800-
SOUTHCENTRAL AND SOUTHEAST MONTANA

CITY           SKY/WX    TMP DP  RH WIND       PRES   REMARKS
BAKER          CLOUDY    18  14  84 CALM      29.66R
BILLINGS       CLOUDY    29  19  66 SW18      29.71R WCI  16
LIVINGSTON     CLOUDY    33  20  58 W14       29.72R WCI  23
MILES CITY     CLOUDY    15  12  88 SW7       29.69R FOG     WCI   5
BIG TIMBER     PTCLDY    30  19  64 SW15      29.73R WCI  19
FORSYTH          N/A     21  21 100 CALM      29.70R
HARLOWTON        N/A     23  17  77 W15       29.70R WCI  10
LAUREL           N/A     24  14  65 SW3       29.73R
$$

REGIONAL REPORTS...DAKOTAS

CITY           SKY/WX    TMP DP  RH WIND       PRES   REMARKS
WILLISTON      CLOUDY    30  28  92 W9        29.63R WCI  22
MINOT          CLOUDY    31  29  92 W9        29.58R FOG     WCI  23
DICKINSON      CLEAR     17  14  88 W12       29.60R WCI   4
BEACH            N/A     19  19 100 W12       29.66R WCI   7
CROSBY         CLOUDY    28  28 100 NW13      29.63R FOG     WCI  18
TIOGA          CLOUDY    28  28 100 NW16      29.61R WCI  17
WATFORD CITY   CLOUDY    25  25 100 SW9       29.64R WCI  15
BISMARCK       CLOUDY    17  16  95 W3        29.65R
GRAND FORKS    FOG       34  32  92 SW3       29.60R VSB 1/2
FARGO          FOG       36  34  92 CALM      29.59R VSB 1/4
BUFFALO SD       N/A     20  17  88 W14       29.57R WCI   7
RAPID CITY     CLOUDY    27  21  78 NW9       29.67R WCI  18
$$

REGIONAL REPORTS...WYOMING/IDAHO/WASHINGTON

CITY           SKY/WX    TMP DP  RH WIND       PRES   REMARKS
GILLETTE       CLEAR     25  22  88 CALM      29.68R
SHERIDAN       CLOUDY    24  18  77 S7        29.70R WCI  16
BUFFALO WY     CLOUDY    27  14  58 NW6       29.68R WCI  20
CODY           CLOUDY    24  17  74 CALM      29.73R
YELLOWSTONE LA   N/A     17  15  92 CALM      29.77R
IDAHO FALLS    CLEAR     22  20  92 SW16      29.86R WCI   8
SALMON         CLOUDY     9   7  92 CALM      29.83R
BOISE          MOCLDY    37  30  75 SE13      29.81R WCI  29
SPOKANE        LGT RAIN  35  32  88 SE6       29.69R WCI  30
$$

REGIONAL REPORTS...ALBERTA

CITY           SKY/WX    TMP DP  RH WIND       PRES   REMARKS
EDMONTON       CLOUDY    21  16  79 N6        29.85R WCI  14
CALGARY        CLOUDY    25  21  86 N9        29.74R WCI  15
LETHBRIDGE     MOCLDY    21 N/A N/A W6        29.74R WCI  14
MEDICINE HAT   FOG       28  28 100 N5        29.74R VSB 3/4
WATERTON GATE    N/A     28  25  86 SW6         N/A  WCI  22
MILK RIVER       N/A     27  21  80 NW10        N/A  WCI  17
ONEFOUR          N/A     25  25 100 NW17        N/A  WCI  11
$$

REGIONAL REPORTS...SASKATCHEWAN

CITY           SKY/WX    TMP DP  RH WIND       PRES   REMARKS
SWIFT CURRENT  FRZ RAIN  27  27 100 NW17      29.62R VSB 5/8 WCI  14
REGINA         MOCLDY    25  21  86 NW9       29.60R WCI  15
SASKATOON      LGT SNOW  27  25  93 N6        29.65R WCI  20
CYPRESS HILLS    N/A     23  19  86 NW9         N/A  WCI  13
VAL MARIE        N/A     27  23  86 NW9         N/A  WCI  17
ROCKGLEN         N/A     27  25  93 NW9         N/A  WCI  17
$$




USA.gov is the U.S. government's official web portal to all federal, state and local government web resources and services.